Погода в Сенях

Россия / Калужская область     54°42′35″N   35°43′26″E
темп.,
°C
ветер,
м/с
пор.,
м/с
влажн.,
%
обл.,
%
осадки,
мм/ч
давл.,
гПа
погр.,
м
20 апреля, вт
вт2000:00+4всв51196100 0.1 1021843
03:00+3всв41097100 0.6 1020597
06:00+3всв41097100 0.4 1019598
09:00+3всв41194100 1.9 1019592
12:00+6в51085100 0.0 1018917
15:00+4всв51095100 0.0 1017709
18:00+3всв41096100 0.0 1015581
21:00+2всв4997100 0.1 1013555
21 апреля, ср
ср2100:00+3св4797100 0.2 1010601
03:00+2ссв3798100 0.8 1007333
06:00+2ссз2698100 1.7 1005311
09:00+3зсз3598100 2.1 1005468
12:00+4з3690100 0.2 1006793
15:00+4зюз3791100 0.3 1008812
18:00+6юз1388100 0.1 100998
21:00+4ююз2692100 0.3 1011172
22 апреля, чт
чт2200:00+4ююз2692100 0.1 1012169
03:00+3ююз279799 0.2 1013217
06:00+3ююз379882 0.1 1014288
09:00+8ююз367949 0.1 1015551
12:00+12ююз466376 0.2 10151471
15:00+12ю4763100 0.8 10141475
18:00+12ю487211 0.6 1014869
21:00+9ю412885 1.1 1015401
23 апреля, пт
пт2300:00+7ю310946 0.0 1014243
03:00+6ююв3119484 0.0 1014258
06:00+7ю4129172 0.3 1014379
09:00+12ю5117690 0.5 1014614
12:00+15ю6136274 0.1 10131722
15:00+12з4783100 2.7 1014691
18:00+10ююз1995100 5.4 1013602
21:00+8з2496100 10.6 1013252
24 апреля, сб
сб2400:00+6сз1296100 1.4 101178
03:00+5зсз5896100 4.6 1009532
06:00+3зсз3998100 4.1 1010473
09:00+4зюз2597100 5.4 1010581
12:00+4з2597100 1.0 1010544
15:00+7зюз1476100 1.6 1009782
18:00+6з487899 1.4 1009904
21:00+3зюз411858 1.6 1010455